Uncategorized

2021 Ratings: OK Red Conference

How Are Speed Ratings Calculat3d?

Girls Adjustment: +26
Boys Adjustment: +21

PRIMETIME PERFORMERS

Allie Arnsman and Sophie Bonnema: Both back just in time for championship season. Arnsman is a big race runner and Sophie is integral to West Ottawa’s quest for an MHSAA plaque.

Colin Graham, Rockford: The last few weeks haven’t been kind to Colin, but this was a step in the right direction. He finished 10th in the last OK Red meet, rebounded back to 5th here.

GradeNameTimeTeamRating
11Arianne Olson17:04.0Holland West Ottawa170.0
9Helen Sachs17:30.0Holland West Ottawa161.3
9Valerie Beeck18:10.9Grand Haven147.7
12Abby Bonnema18:18.9Holland West Ottawa145.0
11Allie Arnsman18:21.1Grandville144.3
11Maya Guikema18:59.3Jenison131.6
9Devin Fisher19:13.1Rockford127.0
10Payton Hosley19:18.2Grand Haven125.3
12Lily Strelecki19:22.0Jenison124.0
12Sophie Bonnema19:24.0Holland West Ottawa123.3
11Cadence Schultz19:26.1East Kentwood122.6
9Gracey Barry19:28.7Grand Haven121.8
9Addison Smith19:29.5Grand Haven121.5
12Kaia Denhof19:31.4Holland West Ottawa120.9
12Bailey Ewen19:32.0Rockford120.7
9Klea Verstrate19:32.8Hudsonville120.4
12Tatum Verburg19:37.9Caledonia118.7
12Lilly Weirich19:40.3Rockford117.9
10Camille Dahlke19:46.9Rockford115.7
12Anna Tracey19:47.6Rockford115.5
11Maggie Otto19:51.0Jenison114.3
12Barbara DeGood19:51.5Caledonia114.2
9Emma Gunnett19:56.2Holland West Ottawa112.6
11Margot Frendt20:00.9Grand Haven111.0
11Megan Postma20:02.2Holland West Ottawa110.6
9Abbey Scholma20:04.2Hudsonville109.9
12Mara Sweeney20:06.5Rockford109.2
11Abby Martin20:10.7Hudsonville107.8
10Laurel Tolliver20:12.6Grand Haven107.1
12Abby Green20:14.6Holland West Ottawa106.5
12Rachael Barone20:15.4Jenison106.2
12Savanna Coulter20:18.7Caledonia105.1
9Natalie Lewis20:20.1Rockford104.6
10Lauren Catton20:21.9Holland West Ottawa104.0
9Jane Olney20:22.6Holland West Ottawa103.8
11Elise Conkel20:25.2Hudsonville102.9
11Natalia Quigley20:25.7Caledonia102.8
9Julia Frampton20:28.3Holland West Ottawa101.9
11Cadence Bommarito20:30.1Caledonia101.3
11Madelyn Fennema20:38.8Caledonia98.4
12Taylor Fairchild20:41.2Caledonia97.6
10Kate Wayne20:46.3Hudsonville95.9
11Jessica Harney20:46.7Rockford95.8
9Lily Frendt20:48.3Grand Haven95.2
12Paige Glass20:50.2Hudsonville94.6
9Reese Meyers20:53.9Hudsonville93.4
12Kaitlynn Robotham20:56.7Caledonia92.5
11Sarah Etcher20:56.9Grandville92.4
10Leanna Barnett20:57.7Rockford92.1
10Leah Vanspronsen20:59.0Grandville91.7
10Jordyn Harrington21:00.5Grandville91.2
12Alicia Sabin21:00.6Hudsonville91.1
10Shae Brodie21:02.0Grand Haven90.7
11Leah Thompson21:03.2Caledonia90.3
9Avalynn Klapmust21:03.9Caledonia90.0
9Olivia VerBeek21:04.3Jenison89.9
12Chloe Fornetti21:04.4East Kentwood89.9
12Claire Stevens21:07.9Grand Haven88.7
9Adysen Daman21:08.4Caledonia88.5
12Lola Schuler21:09.4Caledonia88.2
10Johanna Evink21:09.8Grand Haven88.1
9Chloe DeRidder21:11.2Grandville87.6
11Elise Ferguson21:13.2Grandville86.9
9Naomi Diekman21:14.3Jenison86.6
12Halle Bovee21:14.4Grand Haven86.5
9Andrea Sweet21:16.6Grand Haven85.8
11Nora Hoekert21:18.7Rockford85.1
9Elizabeth Kunzi21:19.7Hudsonville84.8
9Randi Pennington21:25.8Jenison82.7
10Alyssa DeFields21:33.1Caledonia80.3
12Torionna Waterman21:33.8East Kentwood80.1
11Lizzie O’Dell21:34.2Hudsonville79.9
11Kailym Tuggle21:37.4Grand Haven78.9
11Natalie Allshouse21:40.3Rockford77.9
9Lauren Hills21:45.6Hudsonville76.1
11Erika Quibell21:46.8East Kentwood75.7
12Emma Heidema21:47.3Hudsonville75.6
12Claire Vellinga21:47.8Holland West Ottawa75.4
10Reiel Ghiglia21:50.2Hudsonville74.6
11Sydney Guyot21:55.4Hudsonville72.9
10Kloe Kimbrell21:58.7Caledonia71.8
9Abi Albright22:01.8Grand Haven70.7
12Anna VanderWege22:02.0Holland West Ottawa70.7
10Ellie Hoekstra22:06.4Jenison69.2
9Audrey Huff22:09.9Grandville68.0
9Lauren Tower22:11.1Jenison67.6
9Mila Schneider22:14.9Rockford66.4
12Ella Schuler22:19.7Caledonia64.8
11Gracey Bento22:20.4East Kentwood64.5
11Sylvia Sandman22:21.0Rockford64.3
10Alanna Mulligan22:23.5Rockford63.5
10Anna Roest-Hanson22:24.7Grand Haven63.1
12Emma Sweeney22:26.0Rockford62.7
9Tessa Minnear22:30.0Hudsonville61.3
12Alison Doerr22:37.0Grand Haven59.0
12Olivia Oudbier22:39.0Hudsonville58.3
10Lola Van Stedum22:42.7Hudsonville57.1
12Laura Robotham22:45.1Caledonia56.3
12Hailey Fike22:48.7Rockford55.1
10Rachel Ryan22:50.2Grand Haven54.6
9Daphne Deaton22:54.9Hudsonville53.0
12Caitlin Derby22:59.8Holland West Ottawa51.4
11Marissa DeWitte23:00.8Hudsonville51.1
10Allie Sensing23:06.4Caledonia49.2
9Halle De Man23:09.3Rockford48.2
11Lillian Reiner23:15.8Holland West Ottawa46.1
9Melana Karsten23:16.8Rockford45.7
10Anika Blazic23:18.0Rockford45.3
10Lelaina Schnieder23:19.3Rockford44.9
10Taylor Venhuizen23:19.7Caledonia44.8
12Emily Danks23:20.1Rockford44.6
10Ashlee Bozung23:21.3Hudsonville44.2
11Mariah Martinez23:22.2Grandville43.9
12Sara Stanley23:22.7Hudsonville43.8
9Alayna Godfrey23:26.2East Kentwood42.6
9Rachel Baxter23:26.2Hudsonville42.6
10Audrey Howell23:26.6Caledonia42.5
9Hannah Dupuis23:28.0Caledonia42.0
10Emerson Richmond23:28.7Hudsonville41.8
9Sabrina Bielecki23:29.9Hudsonville41.4
11Celia Kingscott23:33.4Grandville40.2
12Shelby Flory23:33.7Hudsonville40.1
10Hannah Barone23:34.5Jenison39.8
12Kaitlyn Dryburgh23:37.4Caledonia38.9
10Madelyn Vande Bunte23:39.7Jenison38.1
9Alexa Elliot23:39.8Caledonia38.1
10Julia Moxey23:42.0East Kentwood37.3
12Evelyn Grimm23:47.0Rockford35.7
12Kirsten Petersen23:48.1East Kentwood35.3
9Kassey Pachulski23:49.5Grandville34.8
9Ally Wiersma23:50.7Hudsonville34.4
10Clarissa Hernandez23:56.3East Kentwood32.6
10Diana Bisono-Balag…23:58.3Caledonia31.9
10Anastasia Ledford23:59.9Caledonia31.4
9Kayla Mabry24:03.0Rockford30.3
9Ava Fisher24:04.6Jenison29.8
9Brianna Nixon24:06.5Hudsonville29.2
10Aubrey VanArtsen24:06.8Caledonia29.1
11Elizabeth Chamberl…24:09.6Rockford28.1
10Maija Carlson24:09.7Rockford28.1
9Kirstyn Wilson24:12.3Holland West Ottawa27.2
11Charlotte Larned24:12.8Grand Haven27.1
10Sela Fitzell24:19.0Caledonia25.0
11Delaina Cook24:20.6Hudsonville24.5
9Leona Keuvelaar24:25.8Grandville22.7
12Amy Valle-Cedillo24:26.2East Kentwood22.6
9Madison Savin24:28.2Caledonia21.9
12Zoe Spasaro24:29.4Hudsonville21.5
11Bryana Andrade-Nava24:29.5Grandville21.5
9Cece Frendt24:31.8Grand Haven20.7
9Amber Fairchild24:33.8Caledonia20.1
9Leah Williams24:34.3Caledonia19.9
10Emma Kusmierski24:38.2Grandville18.6
11Adi Martin24:48.9Grandville15.0
12Ruth Kauffman24:58.6Rockford11.8
11Lauren McKenna24:59.7Caledonia11.4
12Kelsey Kirkbride25:05.3Caledonia9.6
10Charlotte Reidsma25:05.3East Kentwood9.6
11Sidney DeKock25:06.3Hudsonville9.2
11Ella McCrumb25:06.7Grandville9.1
10Kylee Kirkbride25:17.7Caledonia5.4
10Lydia DeCook25:21.5Grandville4.2
12Kaja Lien25:22.9Hudsonville3.7
10Gina Mehling25:26.5Rockford2.5
9Elliana Raterman25:29.2Jenison1.6
9Sage Brownell25:30.6Rockford1.1

GradeNameTimeTeamRating
10Seth Norder15:43.7Grand Haven198.4
11Nolan Clark15:52.0Grand Haven195.7
12Josh Oom15:57.6Caledonia193.8
12Zac Zemba16:05.3Grandville191.2
11Colin Graham16:05.8Rockford191.1
11Jordan Domany16:09.7Caledonia189.8
12Donavan Mattson16:12.5Caledonia188.8
12Caden Dixon16:18.6Caledonia186.8
12Kyle Sweeney16:20.6Rockford186.1
12Antonio Hall16:27.4East Kentwood183.9
12Benjamin DeGood16:28.5Caledonia183.5
11Brett Guzman16:30.8Caledonia182.7
12TJ Mellema16:31.4Rockford182.5
12Jonathan Tysman16:32.2Grand Haven182.3
12Ben Pease16:33.8Grand Haven181.7
9Seth Conner16:35.8Jenison181.1
12Carson Lafferty16:36.2Rockford180.9
12Connor Lubberts16:36.7Jenison180.8
12Andrew Adams16:36.9Caledonia180.7
11Logan Vining16:37.1Grand Haven180.6
10Cole Visser16:38.2Jenison180.3
11Owen Lawrence16:38.3East Kentwood180.2
9Ben Held16:44.3Grand Haven178.2
12Carston Cole16:44.3Holland West Ottawa178.2
11Brendan Wangler16:50.6Jenison176.1
11Charles Lewis16:57.9Rockford173.7
12Eric Giles17:03.5East Kentwood171.8
12Brandon Roach17:10.2Rockford169.6
11Jacob Rottier17:16.4Hudsonville167.5
11Connor Wooley17:20.0Holland West Ottawa166.3
11Will Shults17:24.1Grandville165.0
11Sam Majoor17:25.7Rockford164.4
9Mason Lucas17:26.4Jenison164.2
12Ethan Knapp17:26.7Caledonia164.1
12Colin Pearson17:29.7Caledonia163.1
11Ethan Smith17:30.4Jenison162.9
10Nate Fahey17:30.9Rockford162.7
11Blake Elliot17:32.3Caledonia162.2
11Evan Kornoelje17:34.9Grandville161.4
12Isaac Easter17:35.6Holland West Ottawa161.1
10Gavin Betten17:37.8Rockford160.4
11Logan Hough17:39.5Grand Haven159.8
11Austin Winkle17:42.4Jenison158.9
11Eli DeCook17:46.5Grandville157.5
9Isaac Tanis17:49.0East Kentwood156.7
9Andrew Wangler17:51.4Jenison155.9
9Kort Thompson17:52.0Caledonia155.7
9Parker Strelecki17:53.0Jenison155.3
11Will Marth17:54.1Jenison155.0
9Noah Schuette17:54.1Rockford155.0
10Jason Van Dyken17:55.2Hudsonville154.6
12Gabe TerHaar17:55.4Jenison154.5
10Roman Smith17:55.9Grand Haven154.4
10Rodrique Shema17:56.3East Kentwood154.2
12Noah Miller17:59.0Jenison153.3
9Mason Morrell17:59.8Caledonia153.1
11Ben Monger18:01.8Holland West Ottawa152.4
10Samuel Pugh18:01.9Caledonia152.4
9Evan Nickoles18:02.3East Kentwood152.2
11Owen Lewis18:03.7Hudsonville151.8
12Josh Gorsh18:08.1Grandville150.3
9Matthew Schwartz18:09.0Jenison150.0
9Garrett Smith18:09.6Hudsonville149.8
11Liam Peterson18:13.6Rockford148.5
11Luke Martin18:15.5Hudsonville147.8
12Ryan Hough18:16.4Grand Haven147.5
11Wyatt Putman18:16.8Holland West Ottawa147.4
11Owen Foster18:17.8Holland West Ottawa147.1
12Chase Layman18:21.8Grand Haven145.7
11Jacob Mertes18:22.2Rockford145.6
12Mayson Levandoski18:26.6Holland West Ottawa144.1
12Ryan Larson18:26.9Grand Haven144.0
11Elliott Clayton18:27.7Rockford143.8
12Jackson Gibney18:27.8Grandville143.7
11Karl Kepler18:28.1Grandville143.6
11William Hyson18:29.0Jenison143.3
10Micah Nagel18:29.8Caledonia143.1
11Austin Miller18:31.7Rockford142.4
11Landon Wade18:33.1East Kentwood142.0
10Ira Oliver18:35.0East Kentwood141.3
9Maclin Stidolph18:36.4East Kentwood140.9
10Connor Gabel18:37.4Grand Haven140.5
9Cameron Weibel18:37.6Caledonia140.5
12Kristian Rose18:38.1Jenison140.3
9William Sheely18:39.9Caledonia139.7
10Nic VanderKodde18:39.9Hudsonville139.7
9Carson Berko18:42.3Grand Haven138.9
10Maxwell Krausman18:44.1Rockford138.3
11Trenton Winter18:44.8Rockford138.1
12Grady Schneider18:45.0Caledonia138.0
10Foster Boak18:45.2Hudsonville137.9
9Hudson VanOstenberg18:45.3Rockford137.9
10Gordon Schneider18:46.4Grand Haven137.5
10Levi Moss18:48.0Caledonia137.0
9Ethan Gerlach18:49.0Holland West Ottawa136.7
9Max Corbat18:49.1Grand Haven136.6
12Jaden Henderson18:49.9Jenison136.4
9Ethan Buer18:51.2Caledonia135.9
12Paul Dailey18:53.3Caledonia135.2
9Colter Fortune18:53.9Caledonia135.0
9Caden Karcher18:55.1Rockford134.6
11Grayson Grifhorst18:57.2Grandville133.9
9Cameron Davenport18:57.9Holland West Ottawa133.7
12Nolan Reynolds19:00.4Caledonia132.9
11Gabe Rowell19:02.7Hudsonville132.1
11Robert Horton19:03.7Rockford131.8
9Levi Jongekryg19:04.6Holland West Ottawa131.5
11Ryan Karwowski19:05.1Rockford131.3
10Ben Vitkauskas19:06.1Rockford131.0
11Alex Drzewicki19:07.6Hudsonville130.5
12John Bandstra19:07.8Grand Haven130.4
9Nathan Chapin19:08.3Jenison130.2
11Anthony Lawlor19:08.7Caledonia130.1
11Eric Sorrell19:09.3Caledonia129.9
11Luke Meyer19:10.6Grandville129.5
10Cal Hearn19:12.9Rockford128.7
9Kaiden Murdoch19:13.4Grandville128.5
12Jack Paras19:15.2Rockford127.9
11Reece Ondersma19:15.9Jenison127.7
11Jared Leitch19:16.7Rockford127.4
9Dylan Pfeffer19:17.5Hudsonville127.2
9Jack Baltes19:19.3Jenison126.6
12Jaysen Hoezee19:22.2Holland West Ottawa125.6
11Arthur Gardine19:23.8Grandville125.1
9Benjamin Slagter19:24.1Jenison125.0
12Donovan Sanchez19:24.9East Kentwood124.7
12Ross Fiske19:26.5Rockford124.2
10Kalum Carroll19:27.2Rockford123.9
11Logan Smith19:29.4Jenison123.2
11Antonio Espinosa19:30.7Rockford122.8
12Ashton Grifhorst19:32.8Grandville122.1
11Davis Laubaugh19:33.0Grandville122.0
12Wyatt Foerch19:33.5Caledonia121.8
9Joseph Robison19:35.3East Kentwood121.2
10Max Vangrouw19:35.8Holland West Ottawa121.1
12Matthew Kunzi19:36.0Hudsonville121.0
10Grayson Lentner19:36.7Hudsonville120.8
12Grant Bell19:39.1Grand Haven120.0
9Dylan Leyendecker19:39.8Hudsonville119.7
10Maikhoi Christensen19:41.6East Kentwood119.1
11Harrison Stidolph19:43.3East Kentwood118.6
10Justin Pham19:43.6East Kentwood118.5
11Damien Freeman19:44.6Grandville118.1
11Braylon Anderson19:44.9Grandville118.0
12Jacob Bissell19:46.8Rockford117.4
12Quinten Burlew19:46.9Jenison117.4
11Dean Kauffman19:47.2Rockford117.3
12Miles Simundo19:48.9Caledonia116.7
10James Thorpe19:49.8Jenison116.4
11Henry Marshall19:52.2Grandville115.6
11Owen VanAntwerpen19:57.5Grand Haven113.8
12Luca Pham19:58.7Jenison113.4
10Malachi Kapenga19:58.8Hudsonville113.4
11Caleb Romans20:00.8Holland West Ottawa112.7
9Aidan Ohanyan20:04.9Hudsonville111.4
12Carl Jaeger20:08.4Grand Haven110.2
10Trey Bringedahl20:08.9Rockford110.0
9Aiden Sierra20:08.9Holland West Ottawa110.0
9Zachary Brown20:11.0East Kentwood109.3
9Dalton Ed20:14.1Caledonia108.3
9Aidan Edgar20:14.2Caledonia108.3
11Ben Cadieux20:17.2Holland West Ottawa107.3
12Sam Belbeck20:18.0Grandville107.0
9Cameron Wright20:18.4Caledonia106.9
10Parker Moore20:20.6Hudsonville106.1
9Teo Wilkerson20:20.9Grandville106.0
9Micah Derks20:21.0Jenison106.0
12Ethan Pyscher20:27.4Caledonia103.9
10Ethan Le20:27.8East Kentwood103.7
10Noah Britton20:31.0Jenison102.7
9David Potgeter20:32.8Caledonia102.1
9Jacob Marth20:35.5Jenison101.2
11Dylan Lieckfelt20:35.9East Kentwood101.0
9Isaiah LaDuke20:36.2Holland West Ottawa100.9
10Brayden Czarnecki20:37.5Jenison100.5
11Ryan Van Dyken20:39.7Hudsonville99.8
9Talen Verburg20:41.4Caledonia99.2
9Ethan Henry20:43.3Jenison98.6
12Zachary Burgess20:43.7Caledonia98.4
9Cole Hinterman20:45.7Hudsonville97.8
10Liam VanHouten20:52.1Hudsonville95.6
9Jacob Hector20:52.9Grandville95.4
11Bryce Garcia20:56.3Rockford94.2
10Tyler Watson20:57.9Hudsonville93.7
11Ben Heinrich20:58.4Grand Haven93.5
9Isaac Vierzen20:58.4Hudsonville93.5
9Andrew Tava20:58.9Caledonia93.4
10Yalmaz Javaid20:58.9Hudsonville93.4
9Kelvin Kepler21:02.2Grandville92.3
9Cayden Apol21:07.2Hudsonville90.6
12Philip Ortiz21:07.3Holland West Ottawa90.6
9Caleb Bomhof21:08.1Holland West Ottawa90.3
11Keiton Fase21:10.1Rockford89.6
11Brendan LaFrenier21:15.2Hudsonville87.9
11Josh Hector21:16.0Grandville87.7
10Noah Bosma21:19.0Holland West Ottawa86.7
11Charlie Grimm21:25.4Rockford84.5
9Elijah Stevens21:27.5Grandville83.8
12De’Cary Spuric21:36.5East Kentwood80.8
9Emilio Bultman21:39.0Rockford80.0
12Nick Engel21:41.5Rockford79.2
12Josh Machuta21:43.8Grandville78.4
9Joel Hoppe21:44.3Holland West Ottawa78.2
9Luke Rottier21:47.3Hudsonville77.2
9Devon Lauters21:52.0Grandville75.7
12Eli Mester21:53.5East Kentwood75.2
10Ethan Shealy21:56.0Grandville74.3
12Ben Sanders21:58.2Holland West Ottawa73.6
10Cameron Handwerker22:16.0Rockford67.7
12Max Tran22:16.9Grand Haven67.4
9Noah DeRosia22:19.0Caledonia66.7
9Noah Reinsma22:21.1Hudsonville66.0
9Alejandro Guzman-Mor22:24.8East Kentwood64.7
11Adam Spees22:35.6Caledonia61.1
9Owen Rowell22:41.0Hudsonville59.3
9Jayden Champion22:45.6Grandville57.8
9Nolan Pike22:47.7Caledonia57.1
10Austin Seeley22:47.8Grandville57.1
9Cooper Royce22:50.7Grandville56.1
10Avery Engel22:54.2Rockford54.9
12Billy Scholten22:54.5Hudsonville54.8
12Alex Hyma22:56.7Jenison54.1
12Lorenzo Roerig23:03.6Hudsonville51.8
9Zach VanDerMeulen23:11.2Hudsonville49.3
11Samuel Rysko23:11.4Jenison49.2
12Jesper Gustafsson23:14.9Hudsonville48.0
10Vyacheslav Yuguy23:20.7Rockford46.1
12Conner Veen23:28.9Grandville43.4
10Declan Raimer23:29.1Grandville43.3
9Phillip Avery23:38.4Holland West Ottawa40.2
9Henry Stone23:42.1Grandville39.0
10Tucker Wolf23:50.7Hudsonville36.1
9Skyler DeBlecourt24:00.3East Kentwood32.9
11Gavin Stone24:08.8Rockford30.1
9Kenyon Brooks24:28.5Grandville23.5
9Elijah Maat24:52.1Holland West Ottawa15.6
11Richard Dragivich24:55.1Jenison14.6
9James Harper24:59.9Caledonia13.0
9Benjamin Ault25:01.0Rockford12.7
9Brody Benjamin25:05.9Caledonia11.0
9Peter Ver Duin25:07.7Grand Haven10.4
12Jake McKenney25:10.7Grandville9.4

Leave a Reply

Fill in your details below or click an icon to log in:

WordPress.com Logo

You are commenting using your WordPress.com account. Log Out /  Change )

Google photo

You are commenting using your Google account. Log Out /  Change )

Twitter picture

You are commenting using your Twitter account. Log Out /  Change )

Facebook photo

You are commenting using your Facebook account. Log Out /  Change )

Connecting to %s